User: anonymous   Login
Location: Unspecified
(0.0000°N, 0.0000°E)
Time: 20:01:43
(UTC+00:00)
Language:

AAUSAT CUBESAT 2 - Orbit

View from above orbital plane
View from above orbital plane
View from above satellite
View from above satellite

Ground track
Ground track

The orbit data is extracted from the following two-line orbital elements,

1 32788U 08021F   17268.83648763  .00001034  00000-0  10200-3 0  9992
2 32788  97.5510 300.9911 0012865 147.9972 212.2032 14.94006875510700
Epoch (UTC): 25 September 2017 20:04:32
Eccentricity: 0.0012865
inclination: 97.5510°
perigee height: 576 km
apogee height: 594 km
right ascension of ascending node: 300.9911°
argument of perigee: 147.9972°
revolutions per day: 14.94006875
mean anomaly at epoch: 212.2032°
orbit number at epoch: 51070

The dashed part of the orbit path shows where the satellite is in the earth's shadow,  

DLR